Weather History for Big Piney, WY

Change the Weather History Date:

Monday, November 25, 2013

  Actual Average Record
Temperature  
Mean Temperature 18 °F 19 °F  
Max Temperature 37 °F 32 °F 52 °F (1995)
Min Temperature -2 °F 6 °F -23 °F (2010)
Degree Days  
Heating Degree Days 47 46  
Month to date heating degree days 986 997  
Since 1 July heating degree days 2247 2577  
Cooling Degree Days 0 0  
Month to date cooling degree days 0 0  
Year to date cooling degree days 89 35  
Moisture  
Dew Point 10 °F    
Average Humidity 76    
Maximum Humidity 95    
Minimum Humidity 57    
Precipitation  
Precipitation 0.00 in 0.01 in 0.14 in (2005)
Month to date precipitation 0.29 0.18  
Year to date precipitation 4.51 6.15  
Sea Level Pressure  
Sea Level Pressure 30.46 in    
Wind  
Wind Speed 7 mph (North)    
Max Wind Speed 21 mph    
Max Gust Speed 24 mph    
Visibility 10 miles    
Events      
T = Trace of Precipitation, MM = Missing Value Source: NWS Daily Summary

Daily Weather History Graph

Daily Weather History Graph

Search for Another Location

Airport:

Trip Planner

Search our weather history database for the weather conditions in past years. The results will help you decide how hot, cold, wet, or windy it might be!

Date:

Astronomy

Nov. 25, 2013 Rise Set
Actual Time 7:24 AM MST 4:50 PM MST
Civil Twilight 6:53 AM MST 5:21 PM MST
Nautical Twilight 6:18 AM MST 5:56 PM MST
Astronomical Twilight 5:44 AM MST 6:30 PM MST
Moon No Moon Rise 12:37 PM MST (11/25)
Length of Visible Light 10h 28m
Length of Day
9h 26m
Waning Gibbous, 50% of the Moon is Illuminated
Nov 25
Waning Gibbous
Nov 25
Last Quarter
Dec 2
New
Dec 9
First Quarter
Dec 17
Full

Hourly Weather History & Observations

Time (MST) Temp. Windchill Dew Point Humidity Pressure Visibility Wind Dir Wind Speed Gust Speed Precip Events Conditions
12:53 AM 1.0 °F -8.7 °F -2.9 °F 83% 30.39 in 10.0 mi East 4.6 mph - N/A   Clear
1:53 AM 1.9 °F - -0.9 °F 88% 30.38 in 10.0 mi Calm Calm - N/A   Clear
2:53 AM 5.0 °F -4.1 °F 1.0 °F 84% 30.37 in 10.0 mi ENE 4.6 mph - N/A   Clear
3:53 AM 1.0 °F -8.7 °F -4.0 °F 79% 30.38 in 10.0 mi NE 4.6 mph - N/A   Clear
4:53 AM 1.0 °F -8.7 °F -4.0 °F 79% 30.43 in 10.0 mi NE 4.6 mph - N/A   Clear
5:53 AM 1.9 °F -7.6 °F -2.0 °F 83% 30.50 in 10.0 mi NNW 4.6 mph - N/A   Clear
6:53 AM -0.0 °F - -4.0 °F 83% 30.52 in 10.0 mi Calm Calm - N/A   Clear
7:53 AM 3.0 °F - -0.9 °F 84% 30.54 in 10.0 mi Calm Calm - N/A   Clear
8:53 AM 8.1 °F - 5.0 °F 87% 30.53 in 10.0 mi Calm Calm - N/A   Clear
9:53 AM 10.0 °F 3.6 °F 3.9 °F 76% 30.51 in 10.0 mi East 3.5 mph - N/A   Clear
10:53 AM 18.0 °F - 9.0 °F 68% 30.49 in 10.0 mi Calm Calm - N/A   Clear
11:53 AM 19.9 °F 14.9 °F 10.9 °F 68% 30.49 in 10.0 mi West 3.5 mph - N/A   Clear
12:53 PM 27.0 °F - 14.0 °F 58% 30.46 in 10.0 mi Calm Calm - N/A   Clear
1:53 PM 28.0 °F 24.2 °F 17.1 °F 63% 30.43 in 10.0 mi ESE 3.5 mph - N/A   Clear
2:53 PM 30.9 °F 27.5 °F 18.0 °F 59% 30.40 in 10.0 mi West 3.5 mph - N/A   Clear
3:53 PM 36.0 °F 29.0 °F 24.1 °F 62% 30.40 in 10.0 mi NNW 9.2 mph - N/A   Clear
4:53 PM 30.0 °F 22.4 °F 21.9 °F 72% 30.44 in 10.0 mi NNW 8.1 mph - N/A   Clear
5:53 PM 28.9 °F 18.2 °F 19.9 °F 69% 30.45 in 10.0 mi North 13.8 mph - N/A   Clear
6:53 PM 27.0 °F 13.5 °F 19.0 °F 72% 30.49 in 10.0 mi North 19.6 mph - N/A   Clear
7:53 PM 26.1 °F 13.1 °F 18.0 °F 71% 30.49 in 10.0 mi North 17.3 mph - N/A   Clear
8:53 PM 27.0 °F 14.7 °F 18.0 °F 69% 30.47 in 10.0 mi North 16.1 mph - N/A   Clear
9:53 PM 26.1 °F 13.6 °F 17.1 °F 69% 30.48 in 10.0 mi North 16.1 mph - N/A   Clear
10:53 PM 24.1 °F 12.0 °F 16.0 °F 71% 30.47 in 10.0 mi North 13.8 mph - N/A   Clear
11:53 PM 25.0 °F 11.7 °F 16.0 °F 69% 30.46 in 10.0 mi North 17.3 mph - N/A   Clear